Location: ??????
(41.3747°N, 22.5491°E)
Time: 05:10:07
(UTC+00:00)

NOSS 3-2 (C) - Pass Details

Date: 01 December 2020
Orbit: 789 x 1424 km, 63.4° (Epoch: 09 January)

Event Time Altitude Azimuth Distance (km) Brightness Sun altitude
Rises 16:18:40 0° 180° (S) 3,291 6.5 -14.2°
Reaches altitude 10° 16:21:17 10° 168° (SSE) 2,401 5.6 -14.7°
Maximum altitude 16:25:54 28° 111° (ESE) 1,567 4.2 -15.5°
Enters shadow 16:27:43 24° 81° (E) 1,770 4.3 -15.9°
